Location: Beuerbach
(48.1459°N, 10.9174°E)
Time: 22:39:12
(UTC+00:00)

Cosmos 2333 Rocket - Pass Details

Date: 23 May 2024
Orbit: 839 x 863 km, 70.8° (Epoch: 14 June)

Event Time Altitude Azimuth Distance (km) Brightness Sun altitude
Rises 00:46:27 0° 335° (NNW) 3,423 6.0 -18.1°
Reaches altitude 10° 00:49:03 10° 342° (NNW) 2,488 5.3 -17.9°
Maximum altitude 00:54:26 41° 52° (NE) 1,230 3.5 -17.6°
Drops below altitude 10° 00:59:49 10° 122° (ESE) 2,490 4.6 -17.2°
Sets 01:02:26 0° 130° (SE) 3,426 5.2 -17.0°
